Погода в Медведском

Россия / Курганская область     55°14′58″N   62°59′15″E
темп.,
°C
ветер,
м/с
пор.,
м/с
влажн.,
%
обл.,
%
осадки,
мм/ч
давл.,
гПа
погр.,
м
25 июля, вс
вс2523:00+18в1180100 0.0 100613
02:00+16з118593 0.0 100611
05:00+14зсз338015 0.0 100742
08:00+19сз56618 0.0 1008382
11:00+21сз785616 0.0 1009894
14:00+20сз776876 1.9 10111168
17:00+18ссз796210 3.0 10131094
20:00+17ссз24630 0.0 101491
26 июля, пн
пн2623:00+16зсз336123 0.0 101551
02:00+11сз48655 0.0 1017126
05:00+9сз36725 0.0 1018114
08:00+14ссз465817 0.0 1019425
11:00+18ссз564356 0.0 10191435
14:00+18сз5738100 0.0 10192073
17:00+17зсз464499 0.0 1018929
20:00+16зсз475318 0.0 1018251
27 июля, вт
вт2723:00+12зсз46625 0.0 101878
02:00+11зюз356986 0.0 101770
05:00+13зюз3863100 0.0 1016226
08:00+14з4963100 0.0 1016332
11:00+20з684820 0.0 10151176
14:00+18сз61064100 0.2 1014688
17:00+21зсз695091 0.3 10121771
20:00+16зсз4107619 0.7 1012291
28 июля, ср
ср2823:00+13зюз369199 0.7 101296
02:00+12зюз4893100 0.1 1011165
05:00+12з2496100 0.3 101092
08:00+14з248819 0.3 1010336
11:00+17ссз667154 1.4 10101075
14:00+20ссз674434 0.3 10102002
17:00+20ссз66357 0.3 10112121
20:00+17зсз335049 0.0 101129
29 июля, чт
чт2923:00+13зсз3459100 0.0 101261
02:00+15зсз225096 0.0 101228
05:00+12юз466067 0.0 101280
08:00+16зюз595272 0.0 1012405
11:00+20зюз674097 0.0 10111500
14:00+22зюз683582 0.0 10102473
17:00+15з4974100 0.3 1011406
20:00+15ююз367635 0.3 1010123